Klawock, AK

5:03 PM AKDT on July 22, 2017 (GMT -0800)
Klawock

Weather History for PAKW - January, 2013

Change the Weather History Date:

Monday, January 7, 2013

  Actual Average Record
Temperature  
Mean Temperature 36 °F -  
Max Temperature 39 °F 36 °F 46 °F (2012)
Min Temperature 33 °F 28 °F 16 °F (1998)
Degree Days  
Heating Degree Days 29    
Moisture  
Dew Point 36 °F    
Average Humidity 93    
Maximum Humidity 100    
Minimum Humidity 87    
Precipitation  
Precipitation 0.37 in - - ()
Sea Level Pressure  
Sea Level Pressure 29.60 in    
Wind  
Wind Speed 3 mph (SSW)    
Max Wind Speed 10 mph    
Max Gust Speed 22 mph    
Visibility 7 miles    
Events Rain , Snow    
Averages and records for this station are not official NWS values.
T = Trace of Precipitation, MM = Missing Value Source: NWS Daily Summary

Daily Weather History Graph

Daily Weather History Graph

Search for Another Location

Airport or City:

Trip Planner

Search our weather history database for the weather conditions in past years. The results will help you decide how hot, cold, wet, or windy it might be!

Date:

Astronomy

Jan. 07, 2013 Rise Set
Actual Time 8:17 AM AKST 3:40 PM AKST
Civil Twilight 7:32 AM AKST 4:25 PM AKST
Nautical Twilight 6:45 AM AKST 5:12 PM AKST
Astronomical Twilight 6:00 AM AKST 5:57 PM AKST
Moon 3:38 AM AKST (1/7) 12:05 PM AKST (1/7)
Length of Visible Light 8h 52m
Length of Day
7h 22m
Waning Crescent, 21% of the Moon is Illuminated
Jan 7
Waning Crescent
Jan 11
New
Jan 18
First Quarter
Jan 26
Full
Feb 3
Last Quarter

Hourly Weather History & Observations

Time (AKST) Temp. Windchill Dew Point Humidity Pressure Visibility Wind Dir Wind Speed Gust Speed Precip Events Conditions
12:43 AM 39.2 °F 35.9 °F 35.6 °F 87% 29.42 in 8.0 mi Variable 4.6 mph - N/A   Overcast
12:53 AM 39.0 °F - 36.0 °F 89% 29.42 in 10.0 mi Calm Calm - N/A   Overcast
1:00 AM 37.4 °F - 35.6 °F 93% 29.41 in 9.0 mi Calm Calm - N/A   Overcast
1:53 AM 39.0 °F 35.7 °F 36.0 °F 89% 29.42 in 10.0 mi ENE 4.6 mph - N/A   Overcast
2:40 AM 39.2 °F 37.0 °F 37.4 °F 93% 29.40 in 2.5 mi Variable 3.5 mph - 0.00 in Rain Light Rain
3:13 AM 39.2 °F - 37.4 °F 93% 29.40 in 1.8 mi Calm Calm - 0.01 in Rain Light Rain
3:21 AM 39.2 °F 37.0 °F 37.4 °F 93% 29.41 in 1.5 mi West 3.5 mph - 0.02 in Rain Light Rain
3:35 AM 39.2 °F - 37.4 °F 93% 29.41 in 2.0 mi Calm Calm - 0.03 in Rain Light Rain
3:43 AM 39.2 °F - 39.2 °F 100% 29.41 in 1.5 mi Calm Calm - 0.04 in Rain Light Rain
3:53 AM 39.9 °F 37.8 °F 39.0 °F 97% 29.41 in 1.8 mi Variable 3.5 mph - 0.05 in Rain Light Rain
4:04 AM 39.2 °F 35.9 °F 39.2 °F 100% 29.41 in 3.0 mi SSW 4.6 mph - 0.01 in Rain Light Rain
4:53 AM 39.9 °F 35.1 °F 39.0 °F 97% 29.42 in 3.0 mi West 6.9 mph - 0.01 in   Overcast
5:33 AM 39.2 °F 35.9 °F 39.2 °F 100% 29.42 in 3.0 mi SW 4.6 mph - 0.01 in   Overcast
5:42 AM 39.2 °F 34.2 °F 39.2 °F 100% 29.43 in 5.0 mi WSW 6.9 mph - 0.01 in   Overcast
5:53 AM 39.9 °F 36.7 °F 39.0 °F 97% 29.43 in 5.0 mi SW 4.6 mph - 0.01 in   Overcast
6:53 AM 39.0 °F 36.8 °F 37.9 °F 96% 29.44 in 10.0 mi South 3.5 mph - N/A   Mostly Cloudy
7:53 AM 39.0 °F 35.7 °F 37.0 °F 93% 29.48 in 10.0 mi South 4.6 mph - N/A   Mostly Cloudy
8:11 AM 39.2 °F 37.0 °F 37.4 °F 93% 29.48 in 10.0 mi South 3.5 mph - N/A   Mostly Cloudy
8:53 AM 39.0 °F 34.8 °F 36.0 °F 89% 29.51 in 10.0 mi South 5.8 mph - N/A   Overcast
9:53 AM 39.9 °F 37.8 °F 37.0 °F 89% 29.53 in 10.0 mi South 3.5 mph - N/A   Overcast
10:43 AM 39.2 °F - 37.4 °F 93% 29.54 in 10.0 mi Calm Calm - N/A   Overcast
10:53 AM 39.0 °F 36.8 °F 37.0 °F 93% 29.55 in 8.0 mi SSW 3.5 mph - N/A   Overcast
11:21 AM 39.2 °F 37.0 °F 37.4 °F 93% 29.57 in 8.0 mi WSW 3.5 mph - 0.01 in Rain Light Rain
11:29 AM 39.2 °F - 37.4 °F 93% 29.57 in 10.0 mi Calm Calm - 0.01 in Rain Light Rain
11:53 AM 39.0 °F - 37.0 °F 93% 29.58 in 10.0 mi Calm Calm - 0.01 in Rain Light Rain
12:00 PM 39.2 °F - 37.4 °F 93% 29.58 in 10.0 mi Calm Calm - N/A   Overcast
12:36 PM 39.2 °F 35.0 °F 37.4 °F 93% 29.58 in 10.0 mi Variable 5.8 mph - 0.00 in   Overcast
12:53 PM 39.9 °F 37.8 °F 37.0 °F 89% 29.59 in 10.0 mi Variable 3.5 mph - 0.00 in   Overcast
1:42 PM 37.4 °F 32.1 °F 35.6 °F 93% 29.64 in 2.0 mi Variable 6.9 mph 21.9 mph 0.04 in Rain Heavy Rain
1:50 PM 37.4 °F 34.9 °F 35.6 °F 93% 29.64 in 4.0 mi Variable 3.5 mph - 0.05 in Rain Light Rain
1:53 PM 37.0 °F 34.5 °F 35.1 °F 93% 29.65 in 5.0 mi Variable 3.5 mph - 0.05 in Rain Light Rain
2:53 PM 37.9 °F 34.4 °F 35.1 °F 89% 29.67 in 10.0 mi Variable 4.6 mph - 0.04 in Rain Light Rain
3:19 PM 37.4 °F 32.8 °F 33.8 °F 87% 29.68 in 10.0 mi South 5.8 mph - 0.00 in   Mostly Cloudy
3:53 PM 37.0 °F 34.5 °F 35.1 °F 93% 29.70 in 9.0 mi South 3.5 mph - 0.01 in Rain Light Rain
4:01 PM 37.4 °F 33.8 °F 35.6 °F 93% 29.70 in 10.0 mi WSW 4.6 mph - 0.00 in   Overcast
4:17 PM 37.4 °F 33.8 °F 33.8 °F 87% 29.70 in 10.0 mi South 4.6 mph - 0.00 in   Mostly Cloudy
5:35 PM 35.6 °F 32.8 °F 33.8 °F 93% 29.70 in 4.0 mi SSW 3.5 mph - 0.01 in Rain Rain
5:53 PM 36.0 °F 32.1 °F 33.1 °F 89% 29.70 in 10.0 mi SSE 4.6 mph - 0.01 in   Scattered Clouds
6:41 PM 37.4 °F 33.8 °F 33.8 °F 87% 29.72 in 10.0 mi Variable 4.6 mph - 0.01 in Rain Light Rain
6:53 PM 37.0 °F 34.5 °F 34.0 °F 89% 29.73 in 8.0 mi Variable 3.5 mph - 0.02 in Rain Light Rain
7:37 PM 35.6 °F 28.0 °F 33.8 °F 93% 29.75 in 2.5 mi SSW 10.4 mph 21.9 mph 0.07 in Rain Heavy Rain
7:42 PM 33.8 °F 28.6 °F 33.8 °F 100% 29.75 in 2.0 mi SSW 5.8 mph 21.9 mph 0.07 in Snow Light Snow
7:53 PM 33.1 °F 28.7 °F 32.0 °F 96% 29.76 in 2.0 mi South 4.6 mph - 0.08 in Snow Light Snow
8:08 PM 33.8 °F - 32.0 °F 93% 29.75 in 7.0 mi Calm Calm - 0.01 in Snow Light Snow
8:16 PM 33.8 °F 30.8 °F 32.0 °F 93% 29.75 in 9.0 mi SSE 3.5 mph - 0.02 in   Overcast
8:53 PM 35.1 °F 31.0 °F 33.1 °F 92% 29.75 in 10.0 mi South 4.6 mph - 0.02 in   Overcast
9:07 PM 35.6 °F 31.7 °F 33.8 °F 93% 29.75 in 10.0 mi SSW 4.6 mph - 0.01 in   Mostly Cloudy
9:22 PM 35.6 °F 29.2 °F 33.8 °F 93% 29.76 in 10.0 mi South 8.1 mph - 0.01 in   Mostly Cloudy
9:53 PM 36.0 °F 29.6 °F 33.1 °F 89% 29.77 in 10.0 mi South 8.1 mph - 0.04 in   Overcast
10:21 PM 35.6 °F 32.8 °F 33.8 °F 93% 29.77 in 10.0 mi Variable 3.5 mph - 0.01 in Rain Light Rain
10:30 PM 35.6 °F - 33.8 °F 93% 29.77 in 10.0 mi Calm Calm - 0.01 in   Overcast
10:53 PM 36.0 °F 32.1 °F 33.1 °F 89% 29.78 in 10.0 mi Variable 4.6 mph - 0.02 in   Overcast
11:02 PM 35.6 °F - 33.8 °F 93% 29.78 in 9.0 mi Calm Calm - 0.00 in Rain Light Rain
11:09 PM 35.6 °F 31.7 °F 33.8 °F 93% 29.78 in 9.0 mi SSW 4.6 mph - 0.00 in Rain Light Rain
11:34 PM 33.8 °F - 33.8 °F 100% 29.77 in 10.0 mi Calm Calm - 0.00 in   Scattered Clouds
11:53 PM 34.0 °F 29.8 °F 32.0 °F 92% 29.78 in 10.0 mi Variable 4.6 mph - 0.00 in   Clear